Salina, KS

7:52 AM CDT on August 27, 2016 (GMT -0500)
Salina Municipal

Weather History for KSLN - October, 2013

Change the Weather History Date:

Wednesday, October 23, 2013

  Actual Average Record
Temperature  
Mean Temperature 51 °F 55 °F  
Max Temperature 70 °F 67 °F 93 °F (1939)
Min Temperature 32 °F 44 °F 20 °F (1917)
Degree Days  
Heating Degree Days 14 10  
Month to date heating degree days 179 171  
Since 1 July heating degree days 191 223  
Cooling Degree Days 0 0  
Month to date cooling degree days 55 32  
Year to date cooling degree days 1750 1644  
Growing Degree Days 2 (Base 50)    
Moisture  
Dew Point 37 °F    
Average Humidity 61    
Maximum Humidity 89    
Minimum Humidity 33    
Precipitation  
Precipitation 0.00 in 0.07 in 3.20 in (1957)
Month to date precipitation 0.80 1.84  
Year to date precipitation 28.67 28.88  
Sea Level Pressure  
Sea Level Pressure 30.11 in    
Wind  
Wind Speed 7 mph (West)    
Max Wind Speed 25 mph    
Max Gust Speed 33 mph    
Visibility 10 miles    
Events      
T = Trace of Precipitation, MM = Missing Value Source: NWS Daily Summary

Daily Weather History Graph

Daily Weather History Graph

Search for Another Location

Airport or City:

Trip Planner

Search our weather history database for the weather conditions in past years. The results will help you decide how hot, cold, wet, or windy it might be!

Date:

Astronomy

Oct. 23, 2013 Rise Set
Actual Time 7:48 AM CDT 6:40 PM CDT
Civil Twilight 7:21 AM CDT 7:07 PM CDT
Nautical Twilight 6:50 AM CDT 7:38 PM CDT
Astronomical Twilight 6:19 AM CDT 8:09 PM CDT
Moon 10:14 PM CDT (10/23) 12:04 PM CDT (10/23)
Length of Visible Light 11h 46m
Length of Day
10h 52m
Waning Gibbous, 79% of the Moon is Illuminated
Oct 23
Waning Gibbous
Oct 26
Last Quarter
Nov 3
New
Nov 9
First Quarter
Nov 17
Full

Hourly Weather History & Observations

Time (CDT) Temp. Windchill Dew Point Humidity Pressure Visibility Wind Dir Wind Speed Gust Speed Precip Events Conditions
12:53 AM 44.1 °F 40.8 °F 34.0 °F 68% 30.12 in 10.0 mi NE 5.8 mph - N/A   Clear
1:53 AM 41.0 °F - 34.0 °F 76% 30.14 in 10.0 mi Calm Calm - N/A   Clear
2:53 AM 37.9 °F - 33.1 °F 83% 30.16 in 10.0 mi Calm Calm - N/A   Clear
3:53 AM 39.0 °F - 33.1 °F 79% 30.15 in 10.0 mi Calm Calm - N/A   Clear
4:53 AM 37.9 °F - 34.0 °F 86% 30.15 in 10.0 mi Calm Calm - N/A   Mostly Cloudy
5:53 AM 37.0 °F - 32.0 °F 82% 30.17 in 10.0 mi Calm Calm - N/A   Clear
6:53 AM 35.1 °F 32.2 °F 30.9 °F 85% 30.17 in 10.0 mi SSW 3.5 mph - N/A   Partly Cloudy
7:53 AM 34.0 °F - 30.9 °F 89% 30.16 in 10.0 mi Calm Calm - N/A   Clear
8:53 AM 37.9 °F 35.5 °F 34.0 °F 86% 30.17 in 10.0 mi South 3.5 mph - N/A   Partly Cloudy
9:53 AM 45.0 °F 40.6 °F 37.0 °F 74% 30.16 in 10.0 mi South 8.1 mph - N/A   Clear
10:53 AM 50.0 °F - 36.0 °F 59% 30.14 in 10.0 mi South 9.2 mph - N/A   Clear
11:53 AM 55.0 °F - 37.0 °F 51% 30.10 in 10.0 mi South 9.2 mph - N/A   Clear
12:53 PM 59.0 °F - 37.9 °F 46% 30.08 in 10.0 mi South 6.9 mph 17.3 mph N/A   Clear
1:53 PM 63.0 °F - 39.0 °F 41% 30.04 in 10.0 mi SW 10.4 mph - N/A   Clear
2:53 PM 66.9 °F - 39.0 °F 36% 30.02 in 10.0 mi SW 12.7 mph 19.6 mph N/A   Clear
3:53 PM 69.1 °F - 39.9 °F 35% 30.01 in 10.0 mi West 12.7 mph 17.3 mph N/A   Clear
4:53 PM 69.1 °F - 41.0 °F 36% 30.01 in 10.0 mi WNW 10.4 mph - N/A   Clear
5:53 PM 66.9 °F - 42.1 °F 40% 30.02 in 10.0 mi NW 8.1 mph - N/A   Clear
6:53 PM 62.1 °F - 41.0 °F 46% 30.04 in 10.0 mi Calm Calm - N/A   Clear
7:53 PM 62.1 °F - 41.0 °F 46% 30.08 in 10.0 mi North 16.1 mph - N/A   Clear
8:00 PM 62.6 °F - 41.0 °F 45% 30.08 in 10.0 mi North 16.1 mph 26.5 mph N/A   Clear
8:53 PM 57.0 °F - 39.0 °F 51% 30.12 in 10.0 mi NNE 16.1 mph 25.3 mph N/A   Clear
9:53 PM 54.0 °F - 37.9 °F 55% 30.15 in 10.0 mi NNE 8.1 mph - N/A   Clear
10:53 PM 51.1 °F - 37.9 °F 61% 30.19 in 10.0 mi NE 8.1 mph - N/A   Clear
11:53 PM 48.0 °F - 37.0 °F 66% 30.21 in 10.0 mi NNE 9.2 mph - N/A   Clear